Regional Weather Roundup
Issued by NWS

Home | Current Version | Previous Version | Graphics & Text | Print | Product List | Glossary Off
Versions: 1 2 3 4 5 6 7 8 9 10 11 12 13 14 15 16 17 18 19 20 21 22 23 24 25 26 27

000
ASUS45 KCYS 230010
RWRWY

WYOMING REGIONAL WEATHER ROUNDUP
NATIONAL WEATHER SERVICE CHEYENNE WY
600 PM MDT FRI SEP 22 2017

NOTE:  "FAIR" INDICATES FEW OR NO CLOUDS BELOW 12,000 FEET
WITH NO SIGNIFICANT WEATHER AND/OR OBSTRUCTIONS TO VISIBILITY.

WYZ001-230100-
YELLOWSTONE NATIONAL PARK

CITY           SKY/WX    TMP DP  RH WIND       PRES   REMARKS
LK YELLOWSTONE NOT AVBL
W YELLOWSTONE  NOT AVBL

$$
WYZ002>013-054>058-071-098>099-230100-
NORTHERN WYOMING

CITY           SKY/WX    TMP DP  RH WIND       PRES   REMARKS
JACKSON        CLOUDY    44  32  62 W7        29.92R
CODY           CLOUDY    39  35  86 N7        29.99R WCI  34
GREYBULL       PTSUNNY   47  42  83 NW14      29.93F
6HR MIN TEMP:  42; 6HR MAX TEMP:  49;

WORLAND        CLOUDY    46  40  79 NW7       29.94R
6HR MIN TEMP:  41; 6HR MAX TEMP:  48;

SHERIDAN       CLOUDY    46  40  79 CALM      29.99R
6HR MIN TEMP:  44; 6HR MAX TEMP:  47;

BUFFALO        CLOUDY    42  37  82 N5        30.01R
6HR MIN TEMP:  42; 6HR MAX TEMP:  44;

GILLETTE       CLOUDY    49  37  63 N12       29.96R
6HR MIN TEMP:  47; 6HR MAX TEMP:  51;

HULETT         LGT RAIN  45  37  76 E3        30.00R
NEWCASTLE      FAIR      54  37  54 NW10G20   29.89F

$$
WYZ014>020-022>026-101>103-230100-
CENTRAL WYOMING

CITY           SKY/WX    TMP DP  RH WIND       PRES   REMARKS
BIG PINEY      CLOUDY    44  35  70 S9        29.90R
6HR MIN TEMP:  44; 6HR MAX TEMP:  54; 6HR PCP: TRACE;

PINEDALE       CLOUDY    37  36  93 CALM      29.93R
DUBOIS         CLOUDY    36  34  93 CALM      29.92F
LANDER           N/A    N/A N/A N/A MISG      29.91R
RIVERTON       CLOUDY    44  40  85 N9        29.90R
6HR MIN TEMP:  41; 6HR MAX TEMP:  47; 6HR PCP:  0.03;

CASPER         PTSUNNY   50  46  86 E10       29.89F
6HR MIN TEMP:  48; 6HR MAX TEMP:  59; 6HR PCP:  0.04;

DOUGLAS        RAIN      47  41  80 E6        30.00R
6HR MIN TEMP:  49; 6HR MAX TEMP:  59; 6HR PCP:  0.01;


$$
WYZ021-027>030-104>119-230100-
SOUTHERN WYOMING

CITY           SKY/WX    TMP DP  RH WIND       PRES   REMARKS
EVANSTON       CLOUDY    37  35  92 SW10      29.94S WCI  30
6HR MIN TEMP:  36; 6HR MAX TEMP:  50; 6HR PCP: TRACE;

KEMMERER       LGT SNOW  34  32  93 W13G21    29.95R WCI  25
FORT BRIDGER   LGT SNOW  37  37 100 W18       29.98R WCI  26
ROCK SPRINGS   PTSUNNY   45  41  87 NW12      29.88F
6HR MIN TEMP:  43; 6HR MAX TEMP:  54; 6HR PCP:  0.06;

DIXON          FAIR      60  37  42 E7        29.89
RAWLINS        LGT RAIN  51  43  74 E9        29.90S
6HR MIN TEMP:  45; 6HR MAX TEMP:  58; 6HR PCP:  0.09;

SARATOGA       MOCLDY    54  39  58 NW10      29.94R
LARAMIE        PTSUNNY   49  41  74 E6        29.93F
6HR MIN TEMP:  46; 6HR MAX TEMP:  65; 6HR PCP:  0.10;

CHEYENNE       FAIR      58  35  42 NE14G26   29.90R
6HR MIN TEMP:  57; 6HR MAX TEMP:  68; 6HR PCP: TRACE;

TORRINGTON     FAIR      65  35  33 N21       29.84F
6HR MIN TEMP:  59; 6HR MAX TEMP:  70; 6HR PCP: TRACE;

PINE BLUFFS    FAIR      61  36  39 N15G21    29.85F

$$




USA.gov is the U.S. government's official web portal to all federal, state and local government web resources and services.